Time,TemperatureF,DewpointF,PressureIn,WindDirection,WindDirectionDegrees,WindSpeedMPH,WindSpeedGustMPH,Humidity,HourlyPrecipIn,Conditions,Clouds,dailyrainin,SolarRadiationWatts/m^2,SoftwareType,DateUTC
2013-01-23 00:01:00,26.3,6.0,30.31,ENE,58,0.0,3.0,43,0.00,,,0.00,0,weatherlink.com 1.10,2013-01-23 05:01:00,
2013-01-23 00:16:00,25.8,7.0,30.32,ENE,58,0.0,1.0,44,0.00,,,0.00,0,weatherlink.com 1.10,2013-01-23 05:16:00,
2013-01-23 00:31:00,25.6,5.0,30.31,NNE,25,0.0,0.0,41,0.00,,,0.00,0,weatherlink.com 1.10,2013-01-23 05:31:00,
2013-01-23 00:46:00,25.3,5.0,30.31,NNE,25,0.0,0.0,41,0.00,,,0.00,0,weatherlink.com 1.10,2013-01-23 05:46:00,
2013-01-23 01:01:00,25.1,9.0,30.32,NNE,25,0.0,0.0,51,0.00,,,0.00,0,weatherlink.com 1.10,2013-01-23 06:01:00,
2013-01-23 01:16:00,24.7,6.0,30.32,NNE,25,0.0,0.0,44,0.00,,,0.00,0,weatherlink.com 1.10,2013-01-23 06:16:00,
2013-01-23 01:31:00,24.6,11.0,30.32,NNE,25,0.0,0.0,56,0.00,,,0.00,0,weatherlink.com 1.10,2013-01-23 06:31:00,
2013-01-23 01:46:00,23.9,10.0,30.32,NNE,25,0.0,0.0,56,0.00,,,0.00,0,weatherlink.com 1.10,2013-01-23 06:46:00,
2013-01-23 02:01:00,23.6,12.0,30.32,NNE,25,0.0,0.0,61,0.00,,,0.00,0,weatherlink.com 1.10,2013-01-23 07:01:00,
2013-01-23 02:16:00,23.0,8.0,30.33,NNE,25,0.0,0.0,54,0.00,,,0.00,0,weatherlink.com 1.10,2013-01-23 07:16:00,
2013-01-23 03:16:00,21.5,10.0,30.34,NNE,25,0.0,0.0,62,0.00,,,0.00,0,weatherlink.com 1.10,2013-01-23 08:16:00,
2013-01-23 03:31:00,21.1,11.0,30.34,NNE,25,0.0,0.0,66,0.00,,,0.00,0,weatherlink.com 1.10,2013-01-23 08:31:00,
2013-01-23 03:46:00,20.7,11.0,30.34,NNE,25,0.0,0.0,66,0.00,,,0.00,0,weatherlink.com 1.10,2013-01-23 08:46:00,
2013-01-23 04:01:00,20.5,11.0,30.34,NNE,25,0.0,0.0,68,0.00,,,0.00,0,weatherlink.com 1.10,2013-01-23 09:01:00,
2013-01-23 04:46:00,19.5,12.0,30.35,NNE,25,0.0,0.0,72,0.00,,,0.00,0,weatherlink.com 1.10,2013-01-23 09:46:00,
2013-01-23 05:01:00,19.4,13.0,30.36,NNE,25,0.0,0.0,75,0.00,,,0.00,0,weatherlink.com 1.10,2013-01-23 10:01:00,
2013-01-23 06:01:00,18.8,12.0,30.36,NNE,25,0.0,0.0,76,0.00,,,0.00,0,weatherlink.com 1.10,2013-01-23 11:01:00,
2013-01-23 06:16:00,18.4,12.0,30.36,NNE,25,0.0,0.0,75,0.00,,,0.00,0,weatherlink.com 1.10,2013-01-23 11:16:00,
2013-01-23 06:31:00,18.2,12.0,30.37,NNE,25,0.0,0.0,78,0.00,,,0.00,0,weatherlink.com 1.10,2013-01-23 11:31:00,
2013-01-23 06:46:00,18.2,13.0,30.37,NNE,25,0.0,0.0,79,0.00,,,0.00,0,weatherlink.com 1.10,2013-01-23 11:46:00,
2013-01-23 07:01:00,18.1,12.0,30.38,NNE,25,0.0,0.0,77,0.00,,,0.00,0,weatherlink.com 1.10,2013-01-23 12:01:00,
2013-01-23 07:16:00,18.1,12.0,30.38,NNE,25,0.0,0.0,77,0.00,,,0.00,0,weatherlink.com 1.10,2013-01-23 12:16:00,
2013-01-23 07:31:00,18.0,12.0,30.39,NNE,25,0.0,0.0,78,0.00,,,0.00,9,weatherlink.com 1.10,2013-01-23 12:31:00,
2013-01-23 07:46:00,17.9,12.0,30.39,NNE,25,0.0,0.0,79,0.00,,,0.00,16,weatherlink.com 1.10,2013-01-23 12:46:00,
2013-01-23 08:02:00,18.1,12.0,30.38,NNE,25,0.0,0.0,77,0.00,,,0.00,25,weatherlink.com 1.10,2013-01-23 13:02:00,
2013-01-23 08:17:00,19.3,13.0,30.38,NNE,25,0.0,0.0,76,0.00,,,0.00,105,weatherlink.com 1.10,2013-01-23 13:17:00,
2013-01-23 08:32:00,22.6,16.0,30.38,NNE,25,0.0,0.0,75,0.00,,,0.00,153,weatherlink.com 1.10,2013-01-23 13:32:00,
2013-01-23 08:47:00,25.2,11.0,30.40,NNE,25,0.0,0.0,56,0.00,,,0.00,185,weatherlink.com 1.10,2013-01-23 13:47:00,
2013-01-23 09:02:00,27.9,9.0,30.40,NE,55,1.0,2.0,45,0.00,,,0.00,227,weatherlink.com 1.10,2013-01-23 14:02:00,
2013-01-23 09:17:00,29.3,8.0,30.41,ENE,73,0.0,1.0,40,0.00,,,0.00,267,weatherlink.com 1.10,2013-01-23 14:17:00,
2013-01-23 09:32:00,30.2,5.0,30.41,NW,311,0.0,3.0,34,0.00,,,0.00,308,weatherlink.com 1.10,2013-01-23 14:32:00,
2013-01-23 09:47:00,29.9,5.0,30.41,ENE,61,1.0,4.0,34,0.00,,,0.00,346,weatherlink.com 1.10,2013-01-23 14:47:00,
2013-01-23 10:02:00,31.0,6.0,30.42,SE,126,0.0,4.0,35,0.00,,,0.00,380,weatherlink.com 1.10,2013-01-23 15:02:00,
2013-01-23 10:17:00,30.4,4.0,30.42,NNE,12,1.0,4.0,33,0.00,,,0.00,415,weatherlink.com 1.10,2013-01-23 15:17:00,
2013-01-23 10:32:00,30.7,4.0,30.41,NE,45,0.0,5.0,32,0.00,,,0.00,446,weatherlink.com 1.10,2013-01-23 15:32:00,
2013-01-23 10:47:00,30.9,5.0,30.41,NE,46,5.0,7.0,33,0.00,,,0.00,496,weatherlink.com 1.10,2013-01-23 15:47:00,
2013-01-23 11:02:00,31.6,5.0,30.40,WNW,300,3.0,5.0,32,0.00,,,0.00,499,weatherlink.com 1.10,2013-01-23 16:02:00,
2013-01-23 11:17:00,31.6,5.0,30.39,WNW,299,2.0,8.0,32,0.00,,,0.00,519,weatherlink.com 1.10,2013-01-23 16:17:00,
2013-01-23 11:32:00,32.6,5.0,30.39,WSW,257,4.0,8.0,31,0.00,,,0.00,536,weatherlink.com 1.10,2013-01-23 16:32:00,
2013-01-23 11:47:00,33.2,5.0,30.37,NW,326,2.0,4.0,31,0.00,,,0.00,550,weatherlink.com 1.10,2013-01-23 16:47:00,
2013-01-23 12:02:00,34.2,6.0,30.36,SW,236,3.0,5.0,30,0.00,,,0.00,555,weatherlink.com 1.10,2013-01-23 17:02:00,
2013-01-23 12:18:00,34.2,8.0,30.34,West,261,7.0,7.0,33,0.00,,,0.00,564,weatherlink.com 1.10,2013-01-23 17:18:00,
2013-01-23 12:33:00,34.9,8.0,30.33,SSW,205,2.0,9.0,32,0.00,,,0.00,564,weatherlink.com 1.10,2013-01-23 17:33:00,
2013-01-23 12:48:00,35.6,9.0,30.32,WSW,237,3.0,8.0,33,0.00,,,0.00,563,weatherlink.com 1.10,2013-01-23 17:48:00,
2013-01-23 13:03:00,36.6,10.0,30.31,WSW,258,3.0,7.0,33,0.00,,,0.00,555,weatherlink.com 1.10,2013-01-23 18:03:00,
2013-01-23 13:18:00,37.1,11.0,30.30,SW,229,2.0,6.0,34,0.00,,,0.00,543,weatherlink.com 1.10,2013-01-23 18:18:00,
2013-01-23 13:33:00,37.8,10.0,30.28,SW,227,0.0,9.0,32,0.00,,,0.00,385,weatherlink.com 1.10,2013-01-23 18:33:00,
2013-01-23 13:48:00,38.4,11.0,30.28,NNW,327,3.0,12.0,33,0.00,,,0.00,397,weatherlink.com 1.10,2013-01-23 18:48:00,
2013-01-23 14:03:00,38.6,12.0,30.28,SW,224,6.0,9.0,33,0.00,,,0.00,294,weatherlink.com 1.10,2013-01-23 19:03:00,
2013-01-23 14:18:00,37.5,11.0,30.27,SSW,206,2.0,14.0,34,0.00,,,0.00,128,weatherlink.com 1.10,2013-01-23 19:18:00,
2013-01-23 14:33:00,37.1,12.0,30.27,West,263,2.0,9.0,35,0.00,,,0.00,121,weatherlink.com 1.10,2013-01-23 19:33:00,
2013-01-23 14:48:00,37.6,11.0,30.27,West,261,5.0,8.0,34,0.00,,,0.00,202,weatherlink.com 1.10,2013-01-23 19:48:00,
2013-01-23 15:03:00,38.4,12.0,30.26,West,270,5.0,8.0,34,0.00,,,0.00,279,weatherlink.com 1.10,2013-01-23 20:03:00,
2013-01-23 15:18:00,39.0,13.0,30.26,South,179,3.0,9.0,34,0.00,,,0.00,132,weatherlink.com 1.10,2013-01-23 20:18:00,
2013-01-23 15:33:00,39.9,13.0,30.25,SSW,199,4.0,10.0,33,0.00,,,0.00,292,weatherlink.com 1.10,2013-01-23 20:33:00,
2013-01-23 15:48:00,39.7,13.0,30.25,WSW,257,1.0,9.0,34,0.00,,,0.00,63,weatherlink.com 1.10,2013-01-23 20:48:00,
2013-01-23 16:03:00,40.9,14.0,30.24,West,269,2.0,5.0,33,0.00,,,0.00,209,weatherlink.com 1.10,2013-01-23 21:03:00,
2013-01-23 16:18:00,40.6,13.0,30.24,SSW,207,3.0,8.0,32,0.00,,,0.00,167,weatherlink.com 1.10,2013-01-23 21:18:00,
2013-01-23 16:33:00,41.0,14.0,30.23,WSW,257,2.0,8.0,33,0.00,,,0.00,120,weatherlink.com 1.10,2013-01-23 21:33:00,
2013-01-23 16:48:00,40.9,13.0,30.23,WSW,248,2.0,8.0,32,0.00,,,0.00,72,weatherlink.com 1.10,2013-01-23 21:48:00,
2013-01-23 17:03:00,40.0,13.0,30.23,West,265,0.0,6.0,33,0.00,,,0.00,18,weatherlink.com 1.10,2013-01-23 22:03:00,
2013-01-23 17:18:00,39.4,13.0,30.23,WSW,250,0.0,4.0,34,0.00,,,0.00,9,weatherlink.com 1.10,2013-01-23 22:18:00,
2013-01-23 17:33:00,38.3,15.0,30.24,SSW,207,0.0,1.0,39,0.00,,,0.00,5,weatherlink.com 1.10,2013-01-23 22:33:00,
2013-01-23 17:48:00,36.2,14.0,30.24,SSW,207,0.0,1.0,40,0.00,,,0.00,0,weatherlink.com 1.10,2013-01-23 22:48:00,
2013-01-23 18:03:00,35.0,14.0,30.23,SSW,207,0.0,0.0,42,0.00,,,0.00,0,weatherlink.com 1.10,2013-01-23 23:03:00,
2013-01-23 18:18:00,33.9,16.0,30.22,SSW,207,0.0,0.0,49,0.00,,,0.00,0,weatherlink.com 1.10,2013-01-23 23:18:00,
2013-01-23 18:33:00,32.4,19.0,30.22,SSW,207,0.0,0.0,58,0.00,,,0.00,0,weatherlink.com 1.10,2013-01-23 23:33:00,
2013-01-23 18:48:00,31.4,18.0,30.22,SSW,207,0.0,1.0,59,0.00,,,0.00,0,weatherlink.com 1.10,2013-01-23 23:48:00,
2013-01-23 19:03:00,30.5,19.0,30.21,SSW,207,0.0,1.0,62,0.00,,,0.00,0,weatherlink.com 1.10,2013-01-24 00:03:00,
2013-01-23 19:18:00,29.8,19.0,30.20,SSW,207,0.0,0.0,65,0.00,,,0.00,0,weatherlink.com 1.10,2013-01-24 00:18:00,
2013-01-23 19:33:00,29.2,18.0,30.20,SSW,207,0.0,1.0,63,0.00,,,0.00,0,weatherlink.com 1.10,2013-01-24 00:33:00,
2013-01-23 19:48:00,29.0,18.0,30.19,SSW,207,0.0,1.0,64,0.00,,,0.00,0,weatherlink.com 1.10,2013-01-24 00:48:00,
2013-01-23 20:03:00,29.3,17.0,30.19,SSW,207,0.0,1.0,61,0.00,,,0.00,0,weatherlink.com 1.10,2013-01-24 01:03:00,
2013-01-23 20:18:00,30.3,20.0,30.19,SSE,160,0.0,2.0,65,0.00,,,0.00,0,weatherlink.com 1.10,2013-01-24 01:18:00,
2013-01-23 20:33:00,31.3,18.0,30.19,SSE,160,0.0,2.0,58,0.00,,,0.00,0,weatherlink.com 1.10,2013-01-24 01:33:00,
2013-01-23 20:48:00,31.3,18.0,30.17,SSE,157,0.0,2.0,59,0.00,,,0.00,0,weatherlink.com 1.10,2013-01-24 01:48:00,
2013-01-23 21:03:00,30.6,17.0,30.18,SSE,157,0.0,1.0,58,0.00,,,0.00,0,weatherlink.com 1.10,2013-01-24 02:03:00,
2013-01-23 21:18:00,30.1,18.0,30.17,SSE,157,0.0,1.0,61,0.00,,,0.00,0,weatherlink.com 1.10,2013-01-24 02:18:00,
2013-01-23 21:34:00,30.5,17.0,30.16,SSE,158,0.0,3.0,57,0.00,,,0.00,0,weatherlink.com 1.10,2013-01-24 02:34:00,
2013-01-23 21:49:00,31.7,17.0,30.15,SSE,157,1.0,5.0,54,0.00,,,0.00,0,weatherlink.com 1.10,2013-01-24 02:49:00,
2013-01-23 22:04:00,32.3,17.0,30.14,SSE,165,0.0,4.0,54,0.00,,,0.00,0,weatherlink.com 1.10,2013-01-24 03:04:00,
2013-01-23 22:19:00,31.7,17.0,30.14,SSE,161,0.0,1.0,54,0.00,,,0.00,0,weatherlink.com 1.10,2013-01-24 03:19:00,
2013-01-23 22:34:00,30.9,18.0,30.14,SSE,161,0.0,1.0,58,0.00,,,0.00,0,weatherlink.com 1.10,2013-01-24 03:34:00,
2013-01-23 22:49:00,31.2,18.0,30.13,SSE,167,3.0,3.0,58,0.00,,,0.00,0,weatherlink.com 1.10,2013-01-24 03:49:00,
2013-01-23 23:04:00,32.4,17.0,30.12,SSE,162,2.0,4.0,53,0.00,,,0.00,0,weatherlink.com 1.10,2013-01-24 04:04:00,
2013-01-23 23:19:00,33.3,17.0,30.11,SSE,166,5.0,7.0,52,0.00,,,0.00,0,weatherlink.com 1.10,2013-01-24 04:19:00,
2013-01-23 23:34:00,33.4,17.0,30.11,South,182,2.0,5.0,52,0.00,,,0.00,0,weatherlink.com 1.10,2013-01-24 04:34:00,
2013-01-23 23:49:00,33.4,18.0,30.10,South,169,3.0,6.0,53,0.00,,,0.00,0,weatherlink.com 1.10,2013-01-24 04:49:00,